Location: Heilbronn
(49.1548°N, 9.2780°E)
Time: 08:50:26
(UTC+02:00)

ISS - Visible Passes

Search period start: 28 May 2017 00:00
Search period end: 07 June 2017 00:00
Orbit: 402 x 408 km, 51.6° (Epoch: 28 May)

Date Brightness Start Highest point End Pass type
(mag) Time Alt. Az. Time Alt. Az. Time Alt. Az.
28 May -3.0 00:06:19 10° W 00:09:33 53° N 00:12:48 10° ENE visible
28 May -3.9 01:42:57 10° WNW 01:46:15 84° NNE 01:47:25 37° ESE visible
28 May -1.4 03:19:45 10° W 03:19:57 11° W 03:19:57 11° W visible
28 May -3.1 23:14:11 10° W 23:17:26 57° N 23:20:42 10° ENE visible
29 May -3.5 00:50:53 10° WNW 00:54:11 65° NNE 00:56:01 23° E visible
29 May -1.9 02:27:29 10° WNW 02:28:37 19° W 02:28:37 19° W visible
29 May -3.4 22:22:02 10° W 22:25:20 68° NNW 22:28:37 10° ENE visible
29 May -3.1 23:58:48 10° WNW 00:02:04 56° N 00:05:09 11° E visible
30 May -3.1 01:35:22 10° WNW 01:37:45 41° W 01:37:45 41° W visible
30 May -3.0 23:06:41 10° WNW 23:09:55 52° N 23:13:10 10° E visible
31 May -4.0 00:43:16 10° WNW 00:46:35 87° SSW 00:47:05 62° ESE visible
31 May -3.0 22:14:30 10° W 22:17:46 55° N 22:21:01 10° ENE visible
31 May -3.6 23:51:12 10° WNW 23:54:29 71° NNE 23:56:29 22° E visible
01 Jun -1.9 01:27:50 10° W 01:29:07 19° W 01:29:07 19° W visible
01 Jun -3.2 22:59:04 10° WNW 23:02:21 58° N 23:05:37 10° E visible
02 Jun -3.5 00:35:38 10° WNW 00:38:36 49° SW 00:38:36 49° SW visible
02 Jun -3.0 22:06:55 10° WNW 22:10:10 53° N 22:13:25 10° E visible
02 Jun -3.9 23:43:29 10° WNW 23:46:48 77° SSW 23:48:06 34° ESE visible
03 Jun -1.1 01:20:37 10° W 01:20:44 11° W 01:20:44 11° W visible
03 Jun -3.7 22:51:22 10° WNW 22:54:41 78° NNE 22:57:39 12° ESE visible
04 Jun -2.4 00:28:06 10° W 00:30:17 25° WSW 00:30:17 25° WSW visible
04 Jun -3.3 21:59:13 10° WNW 22:02:30 62° N 22:05:47 10° E visible
04 Jun -3.3 23:35:48 10° WNW 23:38:57 43° SSW 23:39:51 34° SSE visible
05 Jun -3.8 22:43:36 10° WNW 22:46:54 67° SSW 22:49:26 15° SE visible
06 Jun -1.5 00:20:59 10° WSW 00:22:05 14° WSW 00:22:05 14° WSW visible
06 Jun -2.4 23:28:16 10° W 23:30:57 23° SW 23:31:42 21° SSW visible
